TimeCDT,TemperatureF,Dew PointF,Humidity,Sea Level PressureIn,VisibilityMPH,Wind Direction,Wind SpeedMPH,Gust SpeedMPH,PrecipitationIn,Events,Conditions,WindDirDegrees,DateUTC
12:15 AM,64.0,47.3,54,29.68,10.0,East,12.7,17.3,N/A,,Scattered Clouds,90,2014-04-27 05:15:00
12:35 AM,64.4,47.3,54,29.68,10.0,East,13.8,-,N/A,,Mostly Cloudy,100,2014-04-27 05:35:00
1:15 AM,60.4,47.7,63,29.68,10.0,East,20.7,26.5,N/A,,Overcast,80,2014-04-27 06:15:00
1:35 AM,58.1,46.9,66,29.67,10.0,East,17.3,21.9,N/A,,Overcast,80,2014-04-27 06:35:00
1:55 AM,57.2,45.7,65,29.67,10.0,East,18.4,24.2,N/A,,Overcast,80,2014-04-27 06:55:00
2:15 AM,56.3,44.6,65,29.66,10.0,East,16.1,-,N/A,,Overcast,80,2014-04-27 07:15:00
2:35 AM,55.0,44.2,67,29.66,10.0,East,16.1,23.0,N/A,,Overcast,80,2014-04-27 07:35:00
2:55 AM,53.6,43.0,67,29.66,10.0,East,17.3,24.2,N/A,,Overcast,80,2014-04-27 07:55:00
3:15 AM,52.5,42.1,68,29.65,10.0,East,21.9,26.5,N/A,,Overcast,80,2014-04-27 08:15:00
3:35 AM,51.8,41.7,68,29.65,10.0,East,13.8,20.7,N/A,,Overcast,90,2014-04-27 08:35:00
3:55 AM,51.4,41.9,70,29.63,10.0,East,13.8,18.4,N/A,,Overcast,80,2014-04-27 08:55:00
4:15 AM,51.4,41.9,70,29.63,10.0,East,16.1,20.7,N/A,,Overcast,80,2014-04-27 09:15:00
4:35 AM,51.1,41.7,70,29.63,10.0,East,15.0,21.9,N/A,,Overcast,80,2014-04-27 09:35:00
4:55 AM,50.9,41.5,70,29.63,10.0,East,15.0,-,N/A,,Overcast,80,2014-04-27 09:55:00
5:15 AM,50.9,41.4,70,29.62,10.0,East,16.1,19.6,N/A,,Overcast,90,2014-04-27 10:15:00
5:35 AM,50.9,41.2,69,29.62,10.0,East,13.8,19.6,N/A,,Overcast,90,2014-04-27 10:35:00
5:55 AM,51.1,41.7,70,29.61,10.0,East,13.8,19.6,N/A,,Overcast,90,2014-04-27 10:55:00
6:15 AM,51.8,41.9,69,29.61,10.0,East,12.7,19.6,N/A,,Overcast,90,2014-04-27 11:15:00
6:35 AM,52.7,43.0,70,29.61,10.0,East,13.8,18.4,N/A,,Overcast,100,2014-04-27 11:35:00
6:55 AM,54.0,44.6,71,29.59,10.0,East,16.1,21.9,N/A,,Overcast,100,2014-04-27 11:55:00
7:15 AM,54.7,45.0,70,29.60,10.0,ESE,12.7,-,N/A,,Mostly Cloudy,110,2014-04-27 12:15:00
7:35 AM,54.0,44.8,71,29.59,10.0,East,16.1,20.7,N/A,,Mostly Cloudy,100,2014-04-27 12:35:00
7:55 AM,53.6,45.3,74,29.57,10.0,East,11.5,-,N/A,,Mostly Cloudy,100,2014-04-27 12:55:00
8:15 AM,54.7,45.9,72,29.55,10.0,East,15.0,19.6,N/A,,Scattered Clouds,100,2014-04-27 13:15:00
8:35 AM,56.1,46.4,70,29.54,10.0,ESE,17.3,-,N/A,,Clear,110,2014-04-27 13:35:00
8:55 AM,57.6,47.3,69,29.53,10.0,ESE,17.3,21.9,N/A,,Clear,110,2014-04-27 13:55:00
9:15 AM,59.0,48.2,67,29.54,10.0,ESE,15.0,24.2,N/A,,Clear,110,2014-04-27 14:15:00
9:35 AM,60.6,49.6,67,29.53,10.0,East,16.1,19.6,N/A,,Mostly Cloudy,100,2014-04-27 14:35:00
9:55 AM,62.1,50.5,66,29.54,10.0,ESE,12.7,19.6,N/A,,Overcast,110,2014-04-27 14:55:00
10:15 AM,63.7,51.8,65,29.54,10.0,ESE,16.1,-,N/A,,Overcast,110,2014-04-27 15:15:00
10:35 AM,65.7,53.1,64,29.54,10.0,East,15.0,19.6,N/A,,Overcast,100,2014-04-27 15:35:00
10:55 AM,65.3,53.1,65,29.54,10.0,East,11.5,-,N/A,,Overcast,100,2014-04-27 15:55:00
11:15 AM,66.4,53.6,63,29.53,10.0,East,15.0,19.6,N/A,,Overcast,100,2014-04-27 16:15:00
11:35 AM,66.4,54.0,64,29.52,10.0,East,12.7,19.6,N/A,,Overcast,80,2014-04-27 16:35:00
11:55 AM,68.2,54.5,62,29.51,10.0,East,17.3,24.2,N/A,,Mostly Cloudy,100,2014-04-27 16:55:00
12:35 PM,68.0,55.4,64,29.50,10.0,East,16.1,19.6,N/A,,Overcast,90,2014-04-27 17:35:00
12:55 PM,67.5,55.4,65,29.46,10.0,East,18.4,23.0,N/A,,Overcast,100,2014-04-27 17:55:00
1:15 PM,68.0,55.8,65,29.43,10.0,East,18.4,25.3,N/A,,Overcast,100,2014-04-27 18:15:00
1:35 PM,68.0,57.0,68,29.41,10.0,East,16.1,21.9,N/A,Rain,Light Rain,90,2014-04-27 18:35:00
1:55 PM,60.3,57.2,90,29.47,1.0,SW,11.5,35.7,0.25,Rain,Heavy Rain,230,2014-04-27 18:55:00
2:15 PM,59.4,57.4,93,29.48,3.0,SSW,13.8,24.2,0.16,Rain,Heavy Rain,210,2014-04-27 19:15:00
2:35 PM,59.0,57.2,94,29.49,10.0,SW,13.8,-,0.20,Rain,Light Rain,230,2014-04-27 19:35:00
2:55 PM,59.2,57.2,93,29.54,7.0,SW,10.4,-,0.25,Rain,Rain,220,2014-04-27 19:55:00
3:15 PM,59.4,57.2,93,29.48,7.0,NW,5.8,-,0.05,Rain,Rain,310,2014-04-27 20:15:00
3:35 PM,59.4,57.2,93,29.40,7.0,NNE,12.7,16.1,0.09,Rain,Light Rain,20,2014-04-27 20:35:00
3:55 PM,59.4,57.6,94,29.38,10.0,NE,11.5,-,0.09,,Overcast,40,2014-04-27 20:55:00
4:15 PM,59.9,57.7,93,29.40,10.0,ENE,8.1,-,N/A,,Mostly Cloudy,70,2014-04-27 21:15:00
4:35 PM,59.5,57.7,94,29.42,10.0,East,9.2,-,N/A,,Scattered Clouds,80,2014-04-27 21:35:00
4:55 PM,59.4,57.6,94,29.43,10.0,East,10.4,-,N/A,,Scattered Clouds,80,2014-04-27 21:55:00
5:15 PM,59.4,57.4,93,29.44,10.0,East,9.2,-,N/A,,Clear,90,2014-04-27 22:15:00
5:35 PM,59.9,57.4,91,29.44,10.0,East,12.7,-,N/A,,Scattered Clouds,100,2014-04-27 22:35:00
5:55 PM,60.4,57.6,90,29.44,10.0,ESE,12.7,18.4,N/A,,Overcast,110,2014-04-27 22:55:00
6:15 PM,60.8,57.4,88,29.44,10.0,ESE,15.0,19.6,N/A,,Overcast,110,2014-04-27 23:15:00
6:35 PM,60.8,57.0,87,29.45,10.0,ESE,13.8,19.6,N/A,,Overcast,110,2014-04-27 23:35:00
6:55 PM,59.9,56.3,88,29.46,10.0,East,18.4,23.0,N/A,,Overcast,100,2014-04-27 23:55:00
7:15 PM,59.9,56.3,88,29.45,10.0,East,15.0,23.0,N/A,,Overcast,100,2014-04-28 00:15:00
7:35 PM,59.5,56.3,89,29.47,10.0,East,19.6,24.2,N/A,,Overcast,100,2014-04-28 00:35:00
7:55 PM,59.9,56.7,89,29.47,10.0,East,18.4,24.2,N/A,,Overcast,90,2014-04-28 00:55:00
8:15 PM,59.4,56.5,90,29.47,10.0,East,12.7,-,N/A,,Overcast,90,2014-04-28 01:15:00
8:55 PM,59.9,57.2,91,29.47,10.0,East,18.4,-,N/A,,Overcast,100,2014-04-28 01:55:00
9:15 PM,59.9,57.2,91,29.47,10.0,East,19.6,25.3,N/A,,Overcast,100,2014-04-28 02:15:00
9:35 PM,60.1,57.4,91,29.47,10.0,East,19.6,24.2,N/A,,Overcast,100,2014-04-28 02:35:00
9:55 PM,60.1,57.6,91,29.49,7.0,SE,13.8,-,N/A,Rain,Light Rain,130,2014-04-28 02:55:00
10:15 PM,59.9,57.6,92,29.48,5.0,ESE,12.7,-,0.08,Rain,Heavy Rain,110,2014-04-28 03:15:00
10:35 PM,59.0,55.8,89,29.47,10.0,East,10.4,-,0.11,Rain,Light Rain,100,2014-04-28 03:35:00
10:55 PM,58.1,55.6,91,29.44,10.0,East,13.8,-,0.13,Rain,Light Rain,80,2014-04-28 03:55:00
11:15 PM,57.2,54.9,92,29.44,10.0,East,11.5,-,0.01,Rain,Light Rain,90,2014-04-28 04:15:00
11:35 PM,56.8,54.9,93,29.46,5.0,East,10.4,-,0.09,Rain,Heavy Rain,80,2014-04-28 04:35:00
11:55 PM,56.7,55.0,94,29.46,7.0,East,9.2,-,0.10,Rain,Rain,80,2014-04-28 04:55:00